N4WNX-4 Weather Reports


time (UTC)temp
C
wind
direction
speed
KPH
gust
KPH
rain 1hr
cm
rain 24hr
cm
rain mn
cm
humidity
%
barometer
mb
20260506112422 17 133 1.6 6.4 0.00 0.00 0.00 81 1016.9
20260506111523 17 153 3.2 9.7 0.00 0.00 0.00 81 1016.6
20260506110622 17 156 3.2 9.7 0.00 0.00 0.00 81 1016.6
20260506105722 17 165 3.2 11.3 0.00 0.00 0.00 80 1016.5
20260506104822 17 180 1.6 8.0 0.00 0.00 0.00 80 1016.4
20260506104129 17 176 1.6 4.8 0.00 0.00 0.00 80 1016.5
20260506103022 17 162 3.2 6.4 0.00 0.00 0.00 79 1016.6
20260506102122 17 166 1.6 4.8 0.00 0.00 0.00 79 1016.4
20260506101222 17 181 1.6 3.2 0.00 0.00 0.00 79 1016.3
20260506100322 17 149 3.2 9.7 0.00 0.00 0.00 78 1016.4
20260506095422 17 171 3.2 11.3 0.00 0.00 0.00 78 1016.2
20260506094729 17 173 3.2 11.3 0.00 0.00 0.00 78 1016.1
20260506093622 17 157 4.8 8.0 0.00 0.00 0.00 78 1016.3
20260506092722 17 163 3.2 9.7 0.00 0.00 0.00 78 1016.3
20260506091823 17 158 3.2 9.7 0.00 0.00 0.00 78 1016.5
20260506091129 17 162 3.2 9.7 0.00 0.00 0.00 78 1016.6
20260506090022 17 155 3.2 9.7 0.00 0.00 0.00 78 1016.8
20260506085122 17 156 3.2 9.7 0.00 0.00 0.00 77 1016.8
20260506084223 17 171 3.2 9.7 0.00 0.00 0.00 77 1017.1
20260506083322 17 155 1.6 6.4 0.00 0.00 0.00 77 1017.1
20260506082422 17 170 3.2 6.4 0.00 0.00 0.00 77 1016.8
20260506081522 17 164 3.2 6.4 0.00 0.00 0.00 77 1016.8
20260506080622 17 166 1.6 8.0 0.00 0.00 0.00 77 1016.9
20260506073022 17 157 3.2 8.0 0.00 0.00 0.00 76 1016.6
20260506072122 17 152 3.2 8.0 0.00 0.00 0.00 76 1016.6
20260506071222 17 166 3.2 12.9 0.00 0.00 0.00 76 1016.6
20260506070322 17 170 3.2 9.7 0.00 0.00 0.00 76 1016.5
20260506061822 18 171 4.8 14.5 0.00 0.00 0.00 74 1016.4
20260506060922 18 161 4.8 14.5 0.00 0.00 0.00 74 1016.6
20260506050829 19 170 4.8 9.7 0.00 0.00 0.00 71 1017.3
20260506045029 19 175 4.8 14.5 0.00 0.00 0.00 70 1017.4
20260506043922 20 166 4.8 14.5 0.00 0.00 0.00 70 1017.5
20260506043022 20 170 4.8 14.5 0.00 0.00 0.00 70 1017.3
20260506042122 20 166 4.8 12.9 0.00 0.00 0.00 69 1017.4
20260506041223 20 168 3.2 12.9 0.00 0.00 0.00 69 1017.5
20260506040322 20 168 4.8 12.9 0.00 0.00 0.00 68 1017.4
20260506035422 20 167 4.8 11.3 0.00 0.00 0.00 67 1017.4
20260506034522 20 165 4.8 14.5 0.00 0.00 0.00 67 1017.4
20260506033829 20 171 4.8 11.3 0.00 0.00 0.00 67 1017.6
20260506032722 20 167 4.8 14.5 0.00 0.00 0.00 67 1017.5
20260506031822 18 134 3.2 9.7 0.00 0.00 0.00 68 1017.3
20260506030923 18 69 1.6 4.8 0.00 0.00 0.00 73 1017.2
20260506030022 18 0 0.0 0.0 0.00 0.00 0.00 70 1016.9
20260506025122 18 0 0.0 0.0 0.00 0.00 0.00 70 1016.9
20260506024222 18 0 0.0 0.0 0.00 0.00 0.00 69 1016.8
20260506023322 18 0 0.0 0.0 0.00 0.00 0.00 69 1016.6
20260506022422 19 0 0.0 0.0 0.00 0.00 0.00 69 1016.5
20260506021522 19 0 0.0 0.0 0.00 0.00 0.00 67 1016.7
20260506020622 19 62 0.0 1.6 0.00 0.00 0.00 66 1016.8
20260506015722 20 0 0.0 0.0 0.00 0.00 0.00 65 1016.6
20260506015029 20 0 0.0 0.0 0.00 0.00 0.00 64 1016.5
20260506013922 20 63 0.0 1.6 0.00 0.00 0.00 63 1016.6
20260506013022 20 63 0.0 1.6 0.00 0.00 0.00 62 1016.7
20260506012122 20 0 0.0 0.0 0.00 0.00 0.00 62 1016.7
20260506011429 21 42 0.0 1.6 0.00 0.00 0.00 61 1016.5
20260506010322 21 0 0.0 0.0 0.00 0.00 0.00 58 1016.4
20260506005423 22 0 0.0 0.0 0.00 0.00 0.00 58 1016.5
20260506004730 22 63 0.0 1.6 0.00 0.00 0.00 56 1016.4
20260506003622 23 62 0.0 1.6 0.00 0.00 0.00 54 1016.3
20260506002722 23 59 0.0 1.6 0.00 0.00 0.00 52 1015.9
20260506002029 23 0 0.0 0.0 0.00 0.00 0.00 51 1015.9
20260506000922 25 165 0.0 1.6 0.00 0.00 0.00 49 1015.8
20260506000229 25 158 0.0 1.6 0.00 0.00 0.00 47 1015.7
20260505235122 26 132 1.6 3.2 0.00 0.00 0.00 45 1015.7
20260505234222 26 104 1.6 4.8 0.00 0.00 0.00 43 1015.6
20260505233322 27 333 1.6 6.4 0.00 0.00 0.00 42 1015.4
20260505232422 27 110 4.8 12.9 0.00 0.00 0.00 41 1015.4
20260505231522 27 117 3.2 12.9 0.00 0.00 0.00 41 1015.4
20260505230830 27 122 3.2 14.5 0.00 0.00 0.00 40 1015.4
20260505225722 27 132 4.8 14.5 0.00 0.00 0.00 40 1015.3
20260505225029 27 127 4.8 14.5 0.00 0.00 0.00 39 1015.6
20260505223922 27 137 3.2 11.3 0.00 0.00 0.00 40 1015.6
20260505223022 27 146 4.8 16.1 0.00 0.00 0.00 41 1015.7
20260505222122 27 143 4.8 16.1 0.00 0.00 0.00 42 1015.8
20260505221222 27 142 4.8 12.9 0.00 0.00 0.00 41 1015.9
20260505220322 27 259 4.8 20.9 0.00 0.00 0.00 41 1015.9
20260505215422 27 125 3.2 11.3 0.00 0.00 0.00 42 1015.8
20260505214522 27 131 1.6 9.7 0.00 0.00 0.00 44 1016.0
20260505213622 27 159 3.2 9.7 0.00 0.00 0.00 42 1016.0
20260505212722 28 157 3.2 14.5 0.00 0.00 0.00 41 1016.0
20260505211822 27 138 6.4 17.7 0.00 0.00 0.00 40 1016.0
20260505210922 27 125 3.2 12.9 0.00 0.00 0.00 42 1015.9
20260505210022 27 107 6.4 20.9 0.00 0.00 0.00 41 1016.1
20260505205122 27 134 4.8 20.9 0.00 0.00 0.00 43 1016.1
20260505204222 27 148 4.8 12.9 0.00 0.00 0.00 43 1016.1
20260505203322 26 135 3.2 11.3 0.00 0.00 0.00 45 1016.1
20260505202422 27 139 4.8 14.5 0.00 0.00 0.00 43 1016.2
20260505201729 27 107 4.8 12.9 0.00 0.00 0.00 42 1016.2
20260505200622 27 107 4.8 16.1 0.00 0.00 0.00 45 1016.4
20260505195722 27 125 4.8 11.3 0.00 0.00 0.00 44 1016.6
20260505194822 27 124 3.2 12.9 0.00 0.00 0.00 44 1016.8
20260505194129 27 154 6.4 16.1 0.00 0.00 0.00 47 1017.0
20260505193022 27 155 4.8 17.7 0.00 0.00 0.00 49 1017.2
20260505192122 26 155 4.8 16.1 0.00 0.00 0.00 49 1017.4
20260505191222 26 154 6.4 17.7 0.00 0.00 0.00 45 1017.5
20260505190322 27 149 4.8 12.9 0.00 0.00 0.00 44 1017.7
20260505185422 27 175 3.2 11.3 0.00 0.00 0.00 43 1017.9
20260505184522 26 178 4.8 12.9 0.00 0.00 0.00 43 1017.9
20260505183622 26 160 3.2 12.9 0.00 0.00 0.00 48 1018.2
20260505182722 26 289 4.8 17.7 0.00 0.00 0.00 45 1018.2
20260505181822 26 197 4.8 14.5 0.00 0.00 0.00 45 1018.3
20260505180922 26 141 4.8 17.7 0.00 0.00 0.00 45 1018.4
20260505180022 26 127 4.8 16.1 0.00 0.00 0.00 45 1018.2
20260505175122 26 126 4.8 14.5 0.00 0.00 0.00 49 1018.4
20260505174222 26 111 3.2 12.9 0.00 0.00 0.00 47 1018.5
20260505173322 26 138 4.8 16.1 0.00 0.00 0.00 45 1018.5
20260505172422 25 150 3.2 11.3 0.00 0.00 0.00 52 1018.5
20260505171522 25 169 4.8 16.1 0.00 0.00 0.00 49 1018.6
20260505170622 26 142 6.4 19.3 0.00 0.00 0.00 48 1018.6
20260505165929 26 127 4.8 16.1 0.00 0.00 0.00 51 1018.7
20260505165030 25 148 6.4 17.7 0.00 0.00 0.00 51 1018.9
20260505163922 25 159 4.8 14.5 0.00 0.00 0.00 53 1018.9
20260505163229 25 154 6.4 17.7 0.00 0.00 0.00 54 1018.9
20260505162122 25 176 6.4 14.5 0.00 0.00 0.00 56 1019.0
20260505161222 25 164 6.4 14.5 0.00 0.00 0.00 57 1019.2
20260505160322 24 150 6.4 22.5 0.00 0.00 0.00 56 1019.2
20260505152722 23 153 6.4 14.5 0.00 0.00 0.00 60 1019.3
20260505151822 23 146 4.8 14.5 0.00 0.00 0.00 60 1019.3
20260505151129 23 175 4.8 16.1 0.00 0.00 0.00 63 1019.4
20260505124729 18 154 4.8 16.1 0.00 0.00 0.00 75 1019.0
20260505123830 17 149 4.8 12.9 0.00 0.00 0.00 77 1019.0
20260505122722 16 147 3.2 12.9 0.00 0.00 0.00 80 1018.9
20260505121822 15 162 1.6 8.0 0.00 0.00 0.00 82 1018.8
20260505120922 15 147 1.6 6.4 0.00 0.00 0.00 84 1018.6
20260505120022 14 153 1.6 8.0 0.00 0.00 0.00 86 1018.7
20260505115122 13 144 1.6 4.8 0.00 0.00 0.00 87 1018.6
20260505114222 13 147 1.6 3.2 0.00 0.00 0.00 88 1018.5
20260505113322 13 148 0.0 3.2 0.00 0.00 0.00 89 1018.5